| time (UTC) | temp C | wind direction | speed KPH | gust KPH | rain 1hr cm | rain 24hr cm | rain mn cm | humidity % | barometer mb |
| 20260905204602 | 28 | 0 | 0.0 | 0.0 | 0.00 | 0.00 | 0.00 | 68 | 1020.1 |
| 20260905203101 | 28 | 0 | 0.0 | 1.6 | 0.00 | 0.00 | 0.00 | 68 | 1020.0 |
| 20260905201558 | 28 | 121 | 0.0 | 4.8 | 0.00 | 0.00 | 0.00 | 68 | 1019.9 |
| 20260905200058 | 28 | 0 | 0.0 | 3.2 | 0.00 | 0.00 | 0.00 | 68 | 1019.8 |
| 20260905194607 | 28 | 121 | 1.6 | 6.4 | 0.00 | 0.00 | 0.00 | 68 | 1019.6 |
| 20260905193057 | 28 | 121 | 3.2 | 4.8 | 0.00 | 0.00 | 0.00 | 68 | 1019.5 |
| 20260905191602 | 28 | 121 | 3.2 | 6.4 | 0.00 | 0.00 | 0.00 | 68 | 1019.4 |
| 20260905190052 | 28 | 121 | 1.6 | 3.2 | 0.00 | 0.00 | 0.00 | 68 | 1019.5 |
| 20260905184623 | 28 | 121 | 3.2 | 8.0 | 0.00 | 0.00 | 0.00 | 68 | 1019.4 |
| 20260905183101 | 29 | 121 | 4.8 | 9.7 | 0.00 | 0.00 | 0.00 | 68 | 1019.5 |
| 20260905181559 | 29 | 121 | 3.2 | 11.3 | 0.00 | 0.00 | 0.00 | 68 | 1019.5 |
| 20260905180055 | 29 | 121 | 4.8 | 9.7 | 0.00 | 0.00 | 0.00 | 69 | 1019.4 |
| 20260905174626 | 30 | 121 | 6.4 | 14.5 | 0.00 | 0.00 | 0.00 | 69 | 1019.4 |
| 20260905173106 | 31 | 121 | 6.4 | 14.5 | 0.00 | 0.00 | 0.00 | 69 | 1019.4 |
| 20260905171601 | 31 | 121 | 8.0 | 12.9 | 0.00 | 0.00 | 0.00 | 69 | 1019.3 |
| 20260905170053 | 31 | 121 | 4.8 | 14.5 | 0.00 | 0.00 | 0.00 | 69 | 1019.2 |
| 20260905164559 | 32 | 121 | 6.4 | 11.3 | 0.00 | 0.00 | 0.00 | 70 | 1019.2 |
| 20260905163107 | 32 | 121 | 3.2 | 11.3 | 0.00 | 0.00 | 0.00 | 70 | 1019.2 |
| 20260905161554 | 32 | 121 | 3.2 | 9.7 | 0.00 | 0.00 | 0.00 | 70 | 1019.0 |
| 20260905160053 | 32 | 121 | 1.6 | 9.7 | 0.00 | 0.00 | 0.00 | 70 | 1019.0 |
| 20260905154616 | 32 | 121 | 3.2 | 11.3 | 0.00 | 0.00 | 0.00 | 70 | 1019.2 |
| 20260905153106 | 31 | 121 | 4.8 | 9.7 | 0.00 | 0.00 | 0.00 | 70 | 1018.9 |
| 20260905151550 | 31 | 121 | 4.8 | 9.7 | 0.00 | 0.00 | 0.00 | 70 | 1019.3 |
| 20260905150058 | 31 | 121 | 1.6 | 11.3 | 0.00 | 0.00 | 0.00 | 70 | 1019.5 |
| 20260905144555 | 31 | 121 | 4.8 | 8.0 | 0.00 | 0.00 | 0.00 | 70 | 1019.7 |
| 20260905143100 | 31 | 121 | 1.6 | 12.9 | 0.00 | 0.00 | 0.00 | 70 | 1019.8 |
| 20260905141554 | 31 | 121 | 1.6 | 12.9 | 0.00 | 0.00 | 0.00 | 70 | 1020.1 |
| 20260905140055 | 30 | 121 | 6.4 | 14.5 | 0.00 | 0.00 | 0.00 | 70 | 1020.4 |
| 20260905134552 | 30 | 121 | 4.8 | 11.3 | 0.00 | 0.00 | 0.00 | 70 | 1020.4 |
| 20260905133059 | 30 | 121 | 8.0 | 16.1 | 0.00 | 0.00 | 0.00 | 70 | 1020.5 |
| 20260905131604 | 30 | 121 | 8.0 | 17.7 | 0.00 | 0.00 | 0.00 | 70 | 1020.5 |
| 20260905130055 | 31 | 121 | 8.0 | 14.5 | 0.00 | 0.00 | 0.00 | 70 | 1020.6 |
| 20260905124554 | 31 | 121 | 4.8 | 11.3 | 0.00 | 0.00 | 0.00 | 70 | 1020.6 |
| 20260905123103 | 31 | 121 | 8.0 | 12.9 | 0.00 | 0.00 | 0.00 | 70 | 1020.6 |
| 20260905121602 | 31 | 121 | 4.8 | 14.5 | 0.00 | 0.00 | 0.00 | 70 | 1020.7 |
| 20260905120056 | 31 | 122 | 4.8 | 11.3 | 0.00 | 0.00 | 0.00 | 70 | 1020.7 |
| 20260905114555 | 31 | 122 | 6.4 | 12.9 | 0.00 | 0.00 | 0.00 | 70 | 1020.7 |
| 20260905113101 | 32 | 122 | 4.8 | 12.9 | 0.00 | 0.00 | 0.00 | 70 | 1020.6 |
| 20260905111644 | 31 | 122 | 9.7 | 16.1 | 0.00 | 0.00 | 0.00 | 70 | 1020.6 |
| 20260905110055 | 31 | 122 | 9.7 | 14.5 | 0.00 | 0.00 | 0.00 | 70 | 1020.5 |
| 20260905104559 | 30 | 122 | 8.0 | 14.5 | 0.00 | 0.00 | 0.00 | 70 | 1020.6 |
| 20260905103055 | 30 | 122 | 8.0 | 17.7 | 0.00 | 0.00 | 0.00 | 70 | 1020.5 |
| 20260905101600 | 30 | 122 | 8.0 | 12.9 | 0.00 | 0.00 | 0.00 | 70 | 1020.2 |
| 20260905100104 | 28 | 122 | 8.0 | 14.5 | 0.00 | 0.00 | 0.00 | 70 | 1019.9 |
| 20260905094556 | 30 | 122 | 1.6 | 6.4 | 0.00 | 0.00 | 0.00 | 70 | 1019.4 |
| 20260905093102 | 30 | 0 | 0.0 | 3.2 | 0.00 | 0.00 | 0.00 | 70 | 1019.3 |
| 20260905091551 | 28 | 122 | 0.0 | 14.5 | 0.00 | 0.00 | 0.00 | 70 | 1019.1 |
| 20260905090058 | 27 | 122 | 12.9 | 20.9 | 0.00 | 0.00 | 0.00 | 69 | 1018.8 |
| 20260905084604 | 26 | 160 | 9.7 | 16.1 | 0.00 | 0.00 | 0.00 | 69 | 1019.1 |
| 20260905083057 | 26 | 162 | 4.8 | 8.0 | 0.00 | 0.00 | 0.00 | 69 | 1019.9 |
| 20260905081553 | 25 | 162 | 1.6 | 8.0 | 0.00 | 0.00 | 0.00 | 69 | 1020.0 |
| 20260905080117 | 25 | 162 | 3.2 | 14.5 | 0.00 | 0.00 | 0.00 | 69 | 1020.5 |
| 20260905074557 | 25 | 162 | 6.4 | 14.5 | 0.00 | 0.00 | 0.00 | 69 | 1020.5 |
| 20260905073101 | 25 | 162 | 9.7 | 22.5 | 0.00 | 0.00 | 0.00 | 69 | 1020.2 |
| 20260905071555 | 27 | 180 | 6.4 | 9.7 | 0.00 | 0.00 | 0.00 | 70 | 1019.4 |
| 20260905064604 | 27 | 185 | 6.4 | 14.5 | 0.00 | 0.00 | 0.00 | 70 | 1018.0 |
| 20260905063056 | 26 | 188 | 8.0 | 12.9 | 0.00 | 0.00 | 0.00 | 69 | 1018.3 |
| 20260905061558 | 26 | 188 | 3.2 | 6.4 | 0.00 | 0.00 | 0.00 | 69 | 1018.4 |
| 20260905060048 | 26 | 188 | 0.0 | 1.6 | 0.00 | 0.00 | 0.00 | 69 | 1018.6 |
| 20260905054559 | 26 | 188 | 3.2 | 6.4 | 0.00 | 0.00 | 0.00 | 69 | 1018.3 |
| 20260905053108 | 26 | 0 | 0.0 | 9.7 | 0.00 | 0.00 | 0.00 | 69 | 1018.7 |
| 20260905051556 | 25 | 188 | 0.0 | 4.8 | 0.00 | 0.00 | 0.00 | 69 | 1018.4 |
| 20260905050108 | 25 | 188 | 1.6 | 3.2 | 0.00 | 0.00 | 0.00 | 69 | 1018.7 |
| 20260905044558 | 25 | 0 | 0.0 | 1.6 | 0.00 | 0.00 | 0.00 | 69 | 1018.8 |
| 20260905043102 | 26 | 188 | 0.0 | 3.2 | 0.00 | 0.00 | 0.00 | 69 | 1019.3 |
| 20260905041559 | 26 | 0 | 0.0 | 3.2 | 0.00 | 0.00 | 0.00 | 69 | 1019.2 |
| 20260905040107 | 26 | 188 | 1.6 | 6.4 | 0.00 | 0.00 | 0.00 | 70 | 1019.2 |
| 20260905034611 | 26 | 188 | 1.6 | 4.8 | 0.00 | 0.00 | 0.00 | 69 | 1018.8 |
| 20260905033115 | 26 | 0 | 1.6 | 1.6 | 0.00 | 0.00 | 0.00 | 70 | 1018.4 |
| 20260905031602 | 26 | 188 | 0.0 | 3.2 | 0.00 | 0.00 | 0.00 | 70 | 1018.2 |
| 20260905030104 | 26 | 188 | 1.6 | 3.2 | 0.00 | 0.00 | 0.00 | 70 | 1018.0 |
| 20260905024557 | 26 | 188 | 3.2 | 3.2 | 0.00 | 0.00 | 0.00 | 70 | 1017.8 |
| 20260905023111 | 26 | 0 | 0.0 | 1.6 | 0.00 | 0.00 | 0.00 | 70 | 1017.8 |
| 20260905021556 | 26 | 188 | 0.0 | 1.6 | 0.00 | 0.00 | 0.00 | 70 | 1017.8 |
| 20260905020055 | 26 | 188 | 0.0 | 1.6 | 0.00 | 0.00 | 0.00 | 70 | 1018.0 |
| 20260905014559 | 27 | 0 | 0.0 | 1.6 | 0.00 | 0.00 | 0.00 | 70 | 1018.1 |
| 20260905013056 | 27 | 0 | 0.0 | 0.0 | 0.00 | 0.00 | 0.00 | 70 | 1017.9 |
| 20260905011600 | 28 | 0 | 0.0 | 1.6 | 0.00 | 0.00 | 0.00 | 70 | 1018.2 |
| 20260905010107 | 29 | 188 | 0.0 | 6.4 | 0.00 | 0.00 | 0.00 | 71 | 1018.2 |
| 20260905004625 | 29 | 188 | 3.2 | 6.4 | 0.00 | 0.00 | 0.00 | 71 | 1018.1 |
| 20260905003104 | 28 | 188 | 3.2 | 6.4 | 0.00 | 0.00 | 0.00 | 71 | 1018.1 |
| 20260905001558 | 27 | 188 | 1.6 | 3.2 | 0.00 | 0.00 | 0.00 | 70 | 1018.4 |
| 20260905000135 | 26 | 188 | 1.6 | 1.6 | 0.00 | 0.00 | 0.00 | 70 | 1018.5 |
| 20260904234600 | 26 | 0 | 0.0 | 1.6 | 0.00 | 0.00 | 0.00 | 70 | 1018.5 |
| 20260904233058 | 26 | 188 | 0.0 | 4.8 | 0.00 | 0.00 | 0.00 | 70 | 1018.8 |
| 20260904231557 | 26 | 0 | 0.0 | 0.0 | 0.00 | 0.00 | 0.00 | 70 | 1018.9 |
| 20260904230114 | 27 | 0 | 0.0 | 1.6 | 0.00 | 0.00 | 0.00 | 71 | 1018.8 |
| 20260904224559 | 27 | 188 | 1.6 | 3.2 | 0.00 | 0.00 | 0.00 | 71 | 1019.0 |
| 20260904223100 | 27 | 0 | 0.0 | 4.8 | 0.00 | 0.00 | 0.00 | 71 | 1018.9 |
| 20260904221557 | 27 | 188 | 1.6 | 3.2 | 0.00 | 0.00 | 0.00 | 71 | 1019.2 |
| 20260904220100 | 28 | 188 | 3.2 | 4.8 | 0.00 | 0.00 | 0.00 | 71 | 1019.3 |
| 20260904214607 | 28 | 188 | 3.2 | 17.7 | 0.00 | 0.00 | 0.00 | 71 | 1019.4 |
| 20260904213059 | 30 | 191 | 6.4 | 9.7 | 0.00 | 0.00 | 0.00 | 72 | 1018.9 |
| 20260904211603 | 29 | 191 | 6.4 | 8.0 | 0.00 | 0.00 | 0.00 | 71 | 1018.9 |
| 20260904210055 | 29 | 191 | 3.2 | 12.9 | 0.00 | 0.00 | 0.00 | 72 | 1018.9 |